Location: Crescent
(42.8242°N, 73.7329°W)
Time: 04:54:00
(UTC+00:00)

Transit 4A - Pass Details

Date: 22 February 2026
Orbit: 864 x 977 km, 66.8° (Epoch: 5 March)

Event Time Altitude Azimuth Distance (km) Brightness Sun altitude
Rises 06:08:22 0° 163° (SSE) 3,442 - -54.8°
Reaches altitude 10° 06:11:35 10° 145° (SE) 2,521 - -54.6°
Maximum altitude 06:15:24 18° 104° (ESE) 2,022 - -54.2°
Drops below altitude 10° 06:19:16 10° 63° (ENE) 2,574 - -53.9°
Exits shadow 06:21:27 - 50° (NE) 3,187 11.2 -53.7°
Sets 06:22:34 0° 45° (NE) 3,542 11.5 -53.6°
